WA4BPS Weather Reports


time (UTC)temp
C
wind
direction
speed
KPH
gust
KPH
rain 1hr
cm
rain 24hr
cm
rain mn
cm
humidity
%
barometer
mb
20260505114504 15 268 22.5 32.2 0.00 0.00 0.00 69 1009.8
20260505114404 15 248 20.9 32.2 0.00 0.00 0.00 69 1009.4
20260505114302 15 261 16.1 32.2 0.00 0.00 0.00 68 1009.4
20260505114139 15 254 17.7 32.2 0.00 0.00 0.00 68 1009.4
20260505114041 15 271 24.1 32.2 0.00 0.00 0.00 68 1009.4
20260505113939 15 305 19.3 32.2 0.00 0.00 0.00 68 1009.4
20260505113857 15 277 16.1 32.2 0.00 0.00 0.00 68 1009.4
20260505113735 15 244 19.3 32.2 0.00 0.00 0.00 68 1009.4
20260505113635 15 240 20.9 33.8 0.00 0.00 0.00 68 1009.4
20260505113533 15 278 17.7 33.8 0.00 0.00 0.00 68 1009.4
20260505113431 15 281 14.5 33.8 0.00 0.00 0.00 68 1009.4
20260505113334 15 234 22.5 35.4 0.00 0.00 0.00 68 1009.4
20260505113304 15 277 19.3 35.4 0.00 0.00 0.00 68 1009.4
20260505113152 15 277 11.3 35.4 0.00 0.00 0.00 68 1009.4
20260505113029 15 260 19.3 35.4 0.00 0.00 0.00 68 1009.4
20260505112929 15 289 19.3 35.4 0.00 0.00 0.00 68 1009.4
20260505112828 15 268 27.4 35.4 0.00 0.00 0.00 68 1009.4
20260505112725 15 264 24.1 35.4 0.00 0.00 0.00 68 1009.4
20260505112626 15 256 12.9 35.4 0.00 0.00 0.00 68 1009.4
20260505112528 15 237 19.3 35.4 0.00 0.00 0.00 68 1009.4
20260505112451 15 294 16.1 35.4 0.00 0.00 0.00 68 1009.4
20260505112328 15 267 12.9 30.6 0.00 0.00 0.00 68 1009.4
20260505112226 15 240 22.5 30.6 0.00 0.00 0.00 68 1009.4
20260505112125 15 281 17.7 30.6 0.00 0.00 0.00 68 1009.4
20260505112042 15 188 19.3 33.8 0.00 0.00 0.00 68 1009.4
20260505111943 15 280 16.1 33.8 0.00 0.00 0.00 68 1009.4
20260505111826 15 270 16.1 33.8 0.00 0.00 0.00 68 1009.4
20260505111745 15 285 20.9 33.8 0.00 0.00 0.00 68 1009.4
20260505111653 15 277 17.7 33.8 0.00 0.00 0.00 68 1009.4
20260505111531 15 301 14.5 33.8 0.00 0.00 0.00 68 1009.4
20260505111429 15 264 19.3 33.8 0.00 0.00 0.00 68 1009.4
20260505111349 15 272 17.7 33.8 0.00 0.00 0.00 68 1009.1
20260505111227 15 264 19.3 33.8 0.00 0.00 0.00 68 1009.1
20260505111125 15 244 20.9 33.8 0.00 0.00 0.00 67 1009.1
20260505111047 15 309 16.1 33.8 0.00 0.00 0.00 67 1009.1
20260505110945 15 244 14.5 33.8 0.00 0.00 0.00 67 1009.1
20260505110903 15 298 16.1 33.8 0.00 0.00 0.00 67 1009.1
20260505110740 15 308 19.3 33.8 0.00 0.00 0.00 67 1009.1
20260505110632 15 318 17.7 30.6 0.00 0.00 0.00 67 1009.1
20260505110531 15 226 19.3 32.2 0.00 0.00 0.00 67 1009.1
20260505110432 15 265 20.9 32.2 0.00 0.00 0.00 67 1009.1
20260505110351 15 277 19.3 32.2 0.00 0.00 0.00 67 1009.1
20260505110231 15 265 14.5 32.2 0.00 0.00 0.00 67 1009.1
20260505110202 15 254 14.5 32.2 0.00 0.00 0.00 67 1009.1
20260505102138 15 270 20.9 33.8 0.00 0.00 0.00 65 1008.5
20260505102036 15 277 17.7 33.8 0.00 0.00 0.00 64 1008.5
20260505101935 15 256 14.5 33.8 0.00 0.00 0.00 64 1008.5
20260505101834 15 295 19.3 33.8 0.00 0.00 0.00 64 1008.5
20260505101732 15 267 17.7 33.8 0.00 0.00 0.00 64 1008.5
20260505101703 15 292 20.9 33.8 0.00 0.00 0.00 64 1008.5
20260505101525 15 326 17.7 35.4 0.00 0.00 0.00 64 1008.5
20260505101425 15 309 20.9 35.4 0.00 0.00 0.00 64 1008.5
20260505101323 15 322 16.1 35.4 0.00 0.00 0.00 64 1008.5
20260505101242 15 306 20.9 35.4 0.00 0.00 0.00 64 1008.5
20260505101140 15 301 19.3 35.4 0.00 0.00 0.00 64 1008.5
20260505101039 15 257 17.7 35.4 0.00 0.00 0.00 64 1008.5
20260505100938 15 258 19.3 35.4 0.00 0.00 0.00 63 1008.5
20260505100840 15 312 17.7 35.4 0.00 0.00 0.00 63 1008.5
20260505100759 15 296 22.5 35.4 0.00 0.00 0.00 63 1008.5
20260505100635 15 281 19.3 35.4 0.00 0.00 0.00 63 1008.5
20260505100539 15 251 17.7 35.4 0.00 0.00 0.00 63 1008.5
20260505100458 15 243 19.3 35.4 0.00 0.00 0.00 63 1008.5
20260505100418 15 251 16.1 35.4 0.00 0.00 0.00 63 1008.5
20260505100317 15 289 14.5 35.4 0.00 0.00 0.00 63 1008.5
20260505100228 15 244 20.9 41.8 0.00 0.00 0.00 63 1008.5
20260505100104 15 294 20.9 41.8 0.00 0.00 0.00 63 1008.5
20260505095925 15 258 22.5 43.5 0.00 0.00 0.00 63 1008.5
20260505095824 15 272 16.1 43.5 0.00 0.00 0.00 63 1008.2
20260505095742 15 246 20.9 43.5 0.00 0.00 0.00 63 1008.2
20260505095700 15 234 20.9 43.5 0.00 0.00 0.00 63 1008.2
20260505095558 16 270 20.9 43.5 0.00 0.00 0.00 62 1008.2
20260505095435 16 292 20.9 43.5 0.00 0.00 0.00 62 1008.2
20260505095353 16 209 24.1 43.5 0.00 0.00 0.00 62 1008.2
20260505095231 16 265 19.3 43.5 0.00 0.00 0.00 63 1008.2
20260505095129 16 308 22.5 43.5 0.00 0.00 0.00 62 1008.2
20260505095032 16 288 17.7 32.2 0.00 0.00 0.00 62 1008.2
20260505094931 16 282 19.3 32.2 0.00 0.00 0.00 62 1008.2
20260505094829 16 274 24.1 32.2 0.00 0.00 0.00 62 1008.2
20260505094739 16 274 16.1 32.2 0.00 0.00 0.00 62 1008.2
20260505094648 16 216 20.9 32.2 0.00 0.00 0.00 62 1008.2
20260505094526 16 309 17.7 40.2 0.00 0.00 0.00 62 1008.2
20260505094426 16 216 22.5 40.2 0.00 0.00 0.00 62 1008.2
20260505094328 16 288 12.9 40.2 0.00 0.00 0.00 62 1008.0
20260505094225 16 243 22.5 40.2 0.00 0.00 0.00 62 1008.0
20260505094124 16 227 19.3 40.2 0.00 0.00 0.00 62 1008.0
20260505094043 16 275 16.1 40.2 0.00 0.00 0.00 62 1008.0
20260505094001 16 289 19.3 40.2 0.00 0.00 0.00 62 1008.0
20260505093838 16 311 17.7 40.2 0.00 0.00 0.00 61 1008.0
20260505093738 16 199 20.9 45.1 0.00 0.00 0.00 62 1008.0
20260505093639 16 296 19.3 45.1 0.00 0.00 0.00 61 1008.0
20260505093538 16 285 22.5 45.1 0.00 0.00 0.00 61 1008.0
20260505093456 16 318 22.5 45.1 0.00 0.00 0.00 61 1008.0
20260505093352 16 306 27.4 45.1 0.00 0.00 0.00 61 1008.0
20260505093301 16 285 17.7 45.1 0.00 0.00 0.00 61 1008.0
20260505093150 16 189 17.7 45.1 0.00 0.00 0.00 60 1008.0
20260505093024 16 260 17.7 45.1 0.00 0.00 0.00 60 1008.0
20260505092942 16 223 20.9 45.1 0.00 0.00 0.00 60 1008.0
20260505092841 16 299 22.5 45.1 0.00 0.00 0.00 60 1008.1
20260505092724 16 258 19.3 41.8 0.00 0.00 0.00 60 1008.1
20260505092642 16 299 19.3 41.8 0.00 0.00 0.00 60 1008.1
20260505092540 16 298 22.5 41.8 0.00 0.00 0.00 60 1008.1
20260505092458 16 318 22.5 41.8 0.00 0.00 0.00 60 1008.1
20260505092336 16 193 14.5 41.8 0.00 0.00 0.00 60 1008.1
20260505092234 16 325 17.7 41.8 0.00 0.00 0.00 60 1008.1
20260505092151 16 243 22.5 41.8 0.00 0.00 0.00 60 1008.1
20260505092029 16 264 14.5 40.2 0.00 0.00 0.00 60 1008.1
20260505091932 16 308 17.7 40.2 0.00 0.00 0.00 59 1008.1
20260505091829 16 250 20.9 40.2 0.00 0.00 0.00 59 1008.1
20260505091738 16 298 17.7 41.8 0.00 0.00 0.00 59 1008.1
20260505091648 16 256 19.3 41.8 0.00 0.00 0.00 59 1008.1
20260505091546 16 251 24.1 41.8 0.00 0.00 0.00 59 1008.1
20260505091505 16 272 22.5 41.8 0.00 0.00 0.00 59 1008.1
20260505091401 16 268 24.1 41.8 0.00 0.00 0.00 59 1008.9
20260505091258 16 230 24.1 41.8 0.00 0.00 0.00 59 1008.9
20260505091136 16 239 22.5 41.8 0.00 0.00 0.00 59 1008.9
20260505091039 16 287 20.9 41.8 0.00 0.00 0.00 59 1008.9
20260505090937 16 274 25.7 41.8 0.00 0.00 0.00 59 1008.9
20260505090835 16 189 17.7 40.2 0.00 0.00 0.00 58 1008.9
20260505090753 16 258 16.1 40.2 0.00 0.00 0.00 58 1008.9
20260505090631 16 227 22.5 40.2 0.00 0.00 0.00 58 1008.9
20260505090529 16 263 20.9 40.2 0.00 0.00 0.00 58 1008.9
20260505090427 16 220 19.3 40.2 0.00 0.00 0.00 58 1008.9
20260505090329 16 301 25.7 40.2 0.00 0.00 0.00 58 1008.9
20260505090249 16 278 17.7 40.2 0.00 0.00 0.00 58 1008.9
20260505090157 16 301 17.7 40.2 0.00 0.00 0.00 58 1008.9
20260505090034 16 230 19.3 40.2 0.00 0.00 0.00 58 1008.9
20260505085934 16 240 12.9 38.6 0.00 0.00 0.00 58 1008.9
20260505085852 16 254 19.3 38.6 0.00 0.00 0.00 58 1009.2
20260505085750 16 270 20.9 38.6 0.00 0.00 0.00 58 1009.2
20260505085647 16 275 22.5 38.6 0.00 0.00 0.00 58 1009.2
20260505085545 16 302 24.1 38.6 0.00 0.00 0.00 58 1009.2
20260505085443 16 313 22.5 38.6 0.00 0.00 0.00 57 1009.2
20260505085325 16 270 20.9 35.4 0.00 0.00 0.00 57 1009.2
20260505085244 16 260 19.3 35.4 0.00 0.00 0.00 57 1009.2
20260505085142 16 210 19.3 38.6 0.00 0.00 0.00 57 1009.2
20260505085040 16 277 22.5 38.6 0.00 0.00 0.00 57 1009.2
20260505084959 16 220 20.9 38.6 0.00 0.00 0.00 57 1009.2
20260505084856 16 256 22.5 38.6 0.00 0.00 0.00 57 1009.2
20260505084734 16 251 24.1 38.6 0.00 0.00 0.00 57 1009.2
20260505084703 16 263 20.9 38.6 0.00 0.00 0.00 57 1009.2
20260505084526 16 271 20.9 38.6 0.00 0.00 0.00 57 1009.2
20260505084424 16 248 11.3 41.8 0.00 0.00 0.00 57 1009.2
20260505084324 16 271 24.1 41.8 0.00 0.00 0.00 57 1009.2
20260505084243 16 248 17.7 41.8 0.00 0.00 0.00 57 1009.2
20260505084141 16 274 19.3 41.8 0.00 0.00 0.00 56 1009.2
20260505084100 16 275 19.3 41.8 0.00 0.00 0.00 56 1009.2
20260505083937 16 296 24.1 41.8 0.00 0.00 0.00 56 1009.2
20260505083839 16 277 20.9 41.8 0.00 0.00 0.00 56 1009.2
20260505083738 16 265 24.1 41.8 0.00 0.00 0.00 56 1009.2
20260505083636 16 261 20.9 41.8 0.00 0.00 0.00 56 1009.2
20260505083535 16 239 19.3 32.2 0.00 0.00 0.00 56 1009.2
20260505083434 16 284 25.7 33.8 0.00 0.00 0.00 56 1009.2
20260505083352 16 237 20.9 35.4 0.00 0.00 0.00 56 1009.2
20260505083242 16 243 14.5 38.6 0.00 0.00 0.00 56 1009.2
20260505083151 16 306 20.9 38.6 0.00 0.00 0.00 56 1009.2
20260505083032 17 264 17.7 38.6 0.00 0.00 0.00 55 1009.2
20260505082930 17 253 24.1 38.6 0.00 0.00 0.00 55 1009.2
20260505082829 17 232 19.3 38.6 0.00 0.00 0.00 55 1009.3
20260505082746 17 234 17.7 38.6 0.00 0.00 0.00 55 1009.3
20260505082643 17 326 16.1 38.6 0.00 0.00 0.00 55 1009.3
20260505082542 17 284 20.9 38.6 0.00 0.00 0.00 54 1009.3
20260505082440 17 270 22.5 38.6 0.00 0.00 0.00 54 1009.3
20260505082342 17 270 14.5 35.4 0.00 0.00 0.00 54 1009.3
20260505082239 17 257 16.1 35.4 0.00 0.00 0.00 54 1009.3
20260505082138 17 215 17.7 35.4 0.00 0.00 0.00 54 1009.3
20260505082036 17 278 20.9 35.4 0.00 0.00 0.00 54 1009.3
20260505081935 17 224 19.3 35.4 0.00 0.00 0.00 54 1009.3
20260505081853 17 289 22.5 35.4 0.00 0.00 0.00 54 1009.3
20260505081731 17 232 12.9 33.8 0.00 0.00 0.00 54 1009.3
20260505081700 17 287 16.1 33.8 0.00 0.00 0.00 54 1009.3
20260505081538 17 247 16.1 32.2 0.00 0.00 0.00 53 1009.3
20260505081439 17 247 20.9 32.2 0.00 0.00 0.00 53 1009.3
20260505081338 17 274 16.1 40.2 0.00 0.00 0.00 53 1009.3
20260505081236 17 328 14.5 40.2 0.00 0.00 0.00 53 1009.3
20260505081133 17 295 20.9 40.2 0.00 0.00 0.00 53 1009.3
20260505081032 17 288 17.7 40.2 0.00 0.00 0.00 53 1009.3
20260505080931 17 230 22.5 40.2 0.00 0.00 0.00 53 1009.3
20260505080849 17 250 17.7 40.2 0.00 0.00 0.00 53 1009.3
20260505080730 17 193 14.5 40.2 0.00 0.00 0.00 53 1009.3
20260505080628 17 254 19.3 40.2 0.00 0.00 0.00 53 1009.3
20260505080527 17 265 20.9 40.2 0.00 0.00 0.00 53 1009.3
20260505080425 17 233 19.3 35.4 0.00 0.00 0.00 53 1009.3
20260505080326 17 250 19.3 35.4 0.00 0.00 0.00 53 1009.3
20260505080236 17 268 20.9 35.4 0.00 0.00 0.00 52 1009.3
20260505080147 17 271 20.9 35.4 0.00 0.00 0.00 52 1009.3
20260505080044 17 246 27.4 35.4 0.00 0.00 0.00 52 1009.3
20260505075944 17 274 27.4 35.4 0.00 0.00 0.00 52 1009.3
20260505075901 17 272 25.7 35.4 0.00 0.00 0.00 52 1009.6
20260505075738 17 260 19.3 35.4 0.00 0.00 0.00 52 1009.6
20260505075638 17 256 14.5 35.4 0.00 0.00 0.00 52 1009.6
20260505075536 17 271 19.3 35.4 0.00 0.00 0.00 52 1009.6
20260505075434 17 206 20.9 35.4 0.00 0.00 0.00 52 1009.6
20260505075333 17 267 17.7 35.4 0.00 0.00 0.00 51 1009.6
20260505075230 17 304 17.7 35.4 0.00 0.00 0.00 51 1009.6
20260505075136 17 250 17.7 35.4 0.00 0.00 0.00 51 1009.6
20260505075055 17 292 22.5 35.4 0.00 0.00 0.00 51 1009.6
20260505074952 17 264 24.1 35.4 0.00 0.00 0.00 51 1009.6
20260505074829 17 270 17.7 33.8 0.00 0.00 0.00 51 1009.6
20260505074738 17 270 24.1 33.8 0.00 0.00 0.00 51 1009.6
20260505074647 17 272 17.7 33.8 0.00 0.00 0.00 51 1009.6
20260505074545 17 284 16.1 33.8 0.00 0.00 0.00 51 1009.6
20260505074504 17 288 19.3 33.8 0.00 0.00 0.00 51 1009.6
20260505074401 17 224 19.3 38.6 0.00 0.00 0.00 51 1009.7
20260505074243 17 274 20.9 41.8 0.00 0.00 0.00 50 1009.7
20260505074142 17 302 24.1 41.8 0.00 0.00 0.00 50 1009.7
20260505074040 17 274 24.1 41.8 0.00 0.00 0.00 50 1009.7
20260505073939 17 332 19.3 41.8 0.00 0.00 0.00 50 1009.7
20260505073838 17 206 22.5 41.8 0.00 0.00 0.00 50 1009.7
20260505073757 17 272 20.9 41.8 0.00 0.00 0.00 50 1009.7
20260505073634 17 308 16.1 41.8 0.00 0.00 0.00 50 1009.7
20260505073539 17 263 20.9 41.8 0.00 0.00 0.00 50 1009.7
20260505073438 17 285 30.6 41.8 0.00 0.00 0.00 50 1009.7
20260505073336 17 264 17.7 40.2 0.00 0.00 0.00 50 1009.7
20260505073235 17 247 19.3 40.2 0.00 0.00 0.00 50 1009.7
20260505073207 17 234 24.1 40.2 0.00 0.00 0.00 50 1009.7
20260505073043 17 258 24.1 40.2 0.00 0.00 0.00 49 1009.7
20260505072940 17 268 19.3 40.2 0.00 0.00 0.00 49 1009.7
20260505072824 17 267 24.1 40.2 0.00 0.00 0.00 49 1009.6
20260505072743 17 234 20.9 40.2 0.00 0.00 0.00 49 1009.6
20260505072642 17 304 17.7 40.2 0.00 0.00 0.00 49 1009.6
20260505072541 17 246 17.7 40.2 0.00 0.00 0.00 49 1009.6
20260505072500 17 292 12.9 40.2 0.00 0.00 0.00 49 1009.6
20260505072359 17 315 16.1 40.2 0.00 0.00 0.00 49 1009.6
20260505072237 17 270 19.3 40.2 0.00 0.00 0.00 49 1009.6
20260505072135 17 275 14.5 40.2 0.00 0.00 0.00 49 1009.6
20260505072032 17 272 14.5 40.2 0.00 0.00 0.00 50 1009.6
20260505071935 17 282 19.3 33.8 0.00 0.00 0.00 49 1009.6
20260505071833 17 271 20.9 33.8 0.00 0.00 0.00 49 1009.6
20260505071742 17 260 17.7 33.8 0.00 0.00 0.00 50 1009.6
20260505071652 17 278 16.1 33.8 0.00 0.00 0.00 49 1009.6
20260505071528 17 278 17.7 41.8 0.00 0.00 0.00 49 1009.6
20260505071445 17 292 22.5 41.8 0.00 0.00 0.00 49 1009.6
20260505071404 17 271 20.9 41.8 0.00 0.00 0.00 49 1009.8
20260505071242 17 278 22.5 41.8 0.00 0.00 0.00 49 1009.8
20260505071144 17 294 24.1 41.8 0.00 0.00 0.00 49 1009.8
20260505071103 17 248 24.1 41.8 0.00 0.00 0.00 49 1009.8
20260505070939 17 284 19.3 41.8 0.00 0.00 0.00 49 1009.8
20260505070858 17 246 25.7 41.8 0.00 0.00 0.00 49 1009.8
20260505070755 17 244 24.1 41.8 0.00 0.00 0.00 49 1009.8
20260505070654 17 313 22.5 41.8 0.00 0.00 0.00 49 1009.8
20260505070531 17 320 24.1 40.2 0.00 0.00 0.00 49 1009.8
20260505070429 17 302 22.5 40.2 0.00 0.00 0.00 49 1009.8
20260505070347 17 289 24.1 40.2 0.00 0.00 0.00 49 1009.8
20260505070245 17 308 22.5 40.2 0.00 0.00 0.00 49 1009.8
20260505070157 17 313 17.7 40.2 0.00 0.00 0.00 49 1009.8
20260505070058 17 304 17.7 40.2 0.00 0.00 0.00 49 1009.8
20260505065940 17 287 20.9 40.2 0.00 0.00 0.00 49 1009.8
20260505065838 17 296 25.7 40.2 0.00 0.00 0.00 49 1009.8
20260505065756 17 322 25.7 40.2 0.00 0.00 0.00 50 1009.8
20260505065634 17 277 19.3 33.8 0.00 0.00 0.00 50 1009.8
20260505065532 17 295 16.1 40.2 0.00 0.00 0.00 50 1009.8
20260505065430 17 291 19.3 40.2 0.00 0.00 0.00 50 1009.8
20260505065332 17 309 16.1 40.2 0.00 0.00 0.00 50 1009.8
20260505065231 17 316 20.9 40.2 0.00 0.00 0.00 50 1009.8
20260505065129 17 309 19.3 40.2 0.00 0.00 0.00 50 1009.8
20260505065028 17 250 12.9 40.2 0.00 0.00 0.00 50 1009.8
20260505064927 17 305 17.7 40.2 0.00 0.00 0.00 50 1009.8
20260505064829 17 308 20.9 40.2 0.00 0.00 0.00 50 1009.8
20260505064727 17 285 24.1 40.2 0.00 0.00 0.00 50 1009.8
20260505064701 17 268 27.4 40.2 0.00 0.00 0.00 50 1009.8
20260505064559 17 292 27.4 41.8 0.00 0.00 0.00 50 1009.8
20260505064436 17 274 25.7 41.8 0.00 0.00 0.00 50 1009.8
20260505064353 17 285 22.5 41.8 0.00 0.00 0.00 50 1009.9
20260505064251 17 267 17.7 41.8 0.00 0.00 0.00 50 1009.9
20260505064128 17 232 17.7 41.8 0.00 0.00 0.00 50 1009.9
20260505064026 17 264 20.9 41.8 0.00 0.00 0.00 50 1009.9
20260505063926 17 291 24.1 41.8 0.00 0.00 0.00 50 1009.9
20260505063831 17 281 22.5 41.8 0.00 0.00 0.00 50 1009.9
20260505063730 17 236 22.5 41.8 0.00 0.00 0.00 50 1009.9
20260505063629 17 296 20.9 40.2 0.00 0.00 0.00 50 1009.9
20260505063528 17 284 27.4 40.2 0.00 0.00 0.00 50 1009.9
20260505063426 17 196 12.9 38.6 0.00 0.00 0.00 50 1009.9
20260505063324 17 268 19.3 38.6 0.00 0.00 0.00 50 1009.9
20260505063233 17 198 20.9 38.6 0.00 0.00 0.00 51 1009.9
20260505063147 17 209 25.7 45.1 0.00 0.00 0.00 50 1009.9
20260505063024 17 224 24.1 45.1 0.00 0.00 0.00 50 1009.9
20260505062943 17 268 22.5 45.1 0.00 0.00 0.00 50 1009.9
20260505062841 17 217 17.7 45.1 0.00 0.00 0.00 51 1010.0
20260505062738 17 265 16.1 45.1 0.00 0.00 0.00 51 1010.0
20260505062636 17 298 20.9 45.1 0.00 0.00 0.00 50 1010.0
20260505062534 17 264 16.1 45.1 0.00 0.00 0.00 50 1010.0
20260505062438 17 275 16.1 45.1 0.00 0.00 0.00 51 1010.0
20260505062337 17 274 19.3 45.1 0.00 0.00 0.00 50 1010.0
20260505062235 17 312 25.7 45.1 0.00 0.00 0.00 50 1010.0
20260505062133 17 237 19.3 41.8 0.00 0.00 0.00 51 1010.0
20260505062033 17 241 19.3 41.8 0.00 0.00 0.00 51 1010.0
20260505061930 17 289 22.5 41.8 0.00 0.00 0.00 51 1010.0
20260505061828 17 265 19.3 41.8 0.00 0.00 0.00 51 1010.0
20260505061751 17 254 20.9 41.8 0.00 0.00 0.00 50 1010.0
20260505061659 17 271 20.9 41.8 0.00 0.00 0.00 50 1010.0
20260505061541 17 312 24.1 41.8 0.00 0.00 0.00 51 1010.0
20260505061439 17 243 22.5 41.8 0.00 0.00 0.00 51 1010.0
20260505061338 17 301 27.4 41.8 0.00 0.00 0.00 50 1010.0
20260505061236 17 311 24.1 41.8 0.00 0.00 0.00 50 1010.0
20260505061135 17 232 12.9 41.8 0.00 0.00 0.00 51 1010.0
20260505061037 17 240 16.1 41.8 0.00 0.00 0.00 51 1010.0
20260505060935 17 289 22.5 41.8 0.00 0.00 0.00 51 1010.0
20260505060854 17 302 30.6 41.8 0.00 0.00 0.00 50 1010.0
20260505060733 17 287 20.9 41.8 0.00 0.00 0.00 50 1010.0
20260505060632 17 288 20.9 41.8 0.00 0.00 0.00 51 1010.0
20260505060532 17 275 25.7 41.8 0.00 0.00 0.00 51 1010.0
20260505060431 17 298 20.9 41.8 0.00 0.00 0.00 50 1010.0
20260505060349 17 247 19.3 41.8 0.00 0.00 0.00 51 1010.0
20260505060243 17 289 27.4 41.8 0.00 0.00 0.00 50 1010.0
20260505060154 17 264 25.7 41.8 0.00 0.00 0.00 51 1010.0
20260505060030 17 253 22.5 40.2 0.00 0.00 0.00 51 1010.0
20260505055948 17 295 22.5 40.2 0.00 0.00 0.00 51 1010.0
20260505055825 17 212 20.9 40.2 0.00 0.00 0.00 51 1010.1
20260505055743 17 301 22.5 40.2 0.00 0.00 0.00 51 1010.1
20260505055641 17 250 19.3 35.4 0.00 0.00 0.00 51 1010.1
20260505055538 17 246 22.5 35.4 0.00 0.00 0.00 51 1010.1
20260505055441 17 241 20.9 35.4 0.00 0.00 0.00 51 1010.1
20260505055340 17 289 16.1 35.4 0.00 0.00 0.00 51 1010.1
20260505055238 17 294 20.9 33.8 0.00 0.00 0.00 51 1010.1
20260505055157 17 271 16.1 33.8 0.00 0.00 0.00 51 1010.1
20260505055034 17 261 17.7 35.4 0.00 0.00 0.00 51 1010.1
20260505054932 17 287 22.5 35.4 0.00 0.00 0.00 51 1010.1
20260505054830 17 223 19.3 38.6 0.00 0.00 0.00 51 1010.1
20260505054752 17 270 17.7 38.6 0.00 0.00 0.00 51 1010.1
20260505054720 17 332 17.7 38.6 0.00 0.00 0.00 51 1010.1
20260505054537 17 217 17.7 38.6 0.00 0.00 0.00 52 1010.1
20260505054436 17 227 16.1 38.6 0.00 0.00 0.00 51 1010.1
20260505054335 17 291 17.7 38.6 0.00 0.00 0.00 51 1010.2
20260505054233 17 282 14.5 38.6 0.00 0.00 0.00 51 1010.2
20260505054131 17 239 17.7 38.6 0.00 0.00 0.00 52 1010.2
20260505054035 17 277 17.7 38.6 0.00 0.00 0.00 52 1010.2
20260505053933 17 274 14.5 38.6 0.00 0.00 0.00 52 1010.2
20260505053832 17 288 14.5 32.2 0.00 0.00 0.00 52 1010.2
20260505053731 17 272 20.9 32.2 0.00 0.00 0.00 52 1010.2
20260505053628 17 306 14.5 32.2 0.00 0.00 0.00 52 1010.2
20260505053525 17 301 19.3 32.2 0.00 0.00 0.00 52 1010.2
20260505053424 17 254 20.9 32.2 0.00 0.00 0.00 52 1010.2
20260505053327 17 287 24.1 32.2 0.00 0.00 0.00 52 1010.2
20260505053225 17 302 14.5 30.6 0.00 0.00 0.00 52 1010.2
20260505053155 17 271 11.3 30.6 0.00 0.00 0.00 52 1010.2
20260505053032 17 270 16.1 30.6 0.00 0.00 0.00 52 1010.2
20260505052930 17 253 20.9 35.4 0.00 0.00 0.00 52 1010.2
20260505052828 17 239 14.5 35.4 0.00 0.00 0.00 52 1010.3
20260505052747 17 296 19.3 35.4 0.00 0.00 0.00 52 1010.3
20260505052643 17 251 17.7 35.4 0.00 0.00 0.00 52 1010.3
20260505052526 17 256 11.3 35.4 0.00 0.00 0.00 52 1010.3
20260505052447 17 270 14.5 35.4 0.00 0.00 0.00 53 1010.3
20260505052404 17 271 16.1 35.4 0.00 0.00 0.00 52 1010.3
20260505052242 17 223 17.7 35.4 0.00 0.00 0.00 52 1010.3
20260505052202 17 292 20.9 35.4 0.00 0.00 0.00 52 1010.3
20260505052039 17 296 20.9 35.4 0.00 0.00 0.00 52 1010.3
20260505051938 17 304 16.1 33.8 0.00 0.00 0.00 53 1010.3
20260505051837 17 258 14.5 33.8 0.00 0.00 0.00 52 1010.3
20260505051739 17 288 14.5 33.8 0.00 0.00 0.00 53 1010.3
20260505051710 17 213 17.7 33.8 0.00 0.00 0.00 53 1010.3
20260505051546 17 208 16.1 33.8 0.00 0.00 0.00 52 1010.3
20260505051504 17 299 14.5 33.8 0.00 0.00 0.00 52 1010.3
20260505051342 17 315 14.5 33.8 0.00 0.00 0.00 52 1010.4
20260505051239 17 212 19.3 33.8 0.00 0.00 0.00 52 1010.4
20260505051139 17 316 24.1 33.8 0.00 0.00 0.00 52 1010.4
20260505051038 17 261 20.9 33.8 0.00 0.00 0.00 52 1010.4
20260505050940 17 332 16.1 32.2 0.00 0.00 0.00 52 1010.4
20260505050838 17 278 16.1 32.2 0.00 0.00 0.00 52 1010.4
20260505050737 17 280 12.9 32.2 0.00 0.00 0.00 52 1010.4
20260505050636 17 257 16.1 32.2 0.00 0.00 0.00 52 1010.4
20260505050535 17 312 14.5 30.6 0.00 0.00 0.00 51 1010.4
20260505050434 17 257 22.5 38.6 0.00 0.00 0.00 51 1010.4
20260505050352 17 280 24.1 38.6 0.00 0.00 0.00 52 1010.4
20260505050305 17 267 14.5 38.6 0.00 0.00 0.00 52 1010.4
20260505050155 17 246 17.7 38.6 0.00 0.00 0.00 51 1010.4
20260505041741 18 316 14.5 33.8 0.00 0.00 0.00 52 1010.3
20260505041649 18 227 9.7 33.8 0.00 0.00 0.00 52 1010.3
20260505041526 18 250 16.1 33.8 0.00 0.00 0.00 52 1010.3
20260505041425 18 282 25.7 33.8 0.00 0.00 0.00 52 1010.3
20260505041343 18 234 22.5 32.2 0.00 0.00 0.00 52 1009.5
20260505041302 18 247 16.1 33.8 0.00 0.00 0.00 52 1009.5
20260505041124 18 274 14.5 33.8 0.00 0.00 0.00 52 1009.5
20260505041043 18 227 14.5 33.8 0.00 0.00 0.00 52 1009.5
20260505040941 18 280 17.7 33.8 0.00 0.00 0.00 53 1009.5
20260505040841 18 264 14.5 33.8 0.00 0.00 0.00 52 1009.5
20260505040738 18 271 19.3 33.8 0.00 0.00 0.00 52 1009.5
20260505040637 18 229 19.3 33.8 0.00 0.00 0.00 53 1009.5
20260505040536 18 282 14.5 33.8 0.00 0.00 0.00 53 1009.5
20260505040441 18 275 17.7 33.8 0.00 0.00 0.00 53 1009.5
20260505040339 18 263 17.7 33.8 0.00 0.00 0.00 53 1009.5
20260505040239 18 254 20.9 33.8 0.00 0.00 0.00 53 1009.5
20260505040209 18 227 20.9 33.8 0.00 0.00 0.00 53 1009.5
20260505040044 18 285 22.5 33.8 0.00 0.00 0.00 53 1009.5
20260505040004 18 274 17.7 30.6 0.00 0.00 0.00 53 1009.5
20260505035900 18 272 14.5 30.6 0.00 0.00 0.00 53 1009.5
20260505035738 18 277 20.9 30.6 0.00 0.00 0.00 54 1009.5
20260505035636 18 278 20.9 30.6 0.00 0.00 0.00 54 1009.5
20260505035540 18 256 20.9 30.6 0.00 0.00 0.00 53 1009.5
20260505035458 18 270 17.7 30.6 0.00 0.00 0.00 54 1009.5
20260505035336 18 243 16.1 30.6 0.00 0.00 0.00 54 1009.5
20260505035235 18 299 20.9 30.6 0.00 0.00 0.00 54 1009.5
20260505035134 18 271 19.3 30.6 0.00 0.00 0.00 54 1009.5
20260505035032 18 296 17.7 29.0 0.00 0.00 0.00 53 1009.5
20260505034931 18 272 16.1 29.0 0.00 0.00 0.00 53 1009.5
20260505034834 18 264 14.5 29.0 0.00 0.00 0.00 53 1009.5
20260505034732 18 316 14.5 29.0 0.00 0.00 0.00 54 1009.5
20260505034703 18 302 17.7 29.0 0.00 0.00 0.00 54 1009.5
20260505034541 18 311 16.1 29.0 0.00 0.00 0.00 53 1009.5
20260505034437 18 312 12.9 29.0 0.00 0.00 0.00 54 1009.5
20260505034337 18 294 17.7 29.0 0.00 0.00 0.00 53 1010.4
20260505034237 18 253 22.5 35.4 0.00 0.00 0.00 53 1010.4
20260505034139 18 285 20.9 35.4 0.00 0.00 0.00 53 1010.4
20260505034037 18 260 14.5 35.4 0.00 0.00 0.00 54 1010.4
20260505033935 18 284 14.5 35.4 0.00 0.00 0.00 53 1010.4
20260505033835 18 274 14.5 35.4 0.00 0.00 0.00 53 1010.4
20260505033752 18 248 9.7 35.4 0.00 0.00 0.00 53 1010.4
20260505033630 18 292 11.3 35.4 0.00 0.00 0.00 53 1010.4
20260505033529 18 320 14.5 35.4 0.00 0.00 0.00 53 1010.4
20260505033432 18 296 22.5 35.4 0.00 0.00 0.00 53 1010.4
20260505033331 18 315 14.5 33.8 0.00 0.00 0.00 53 1010.4
20260505033239 18 320 14.5 33.8 0.00 0.00 0.00 53 1010.4
20260505033149 18 229 19.3 33.8 0.00 0.00 0.00 53 1010.4
20260505033026 18 282 14.5 33.8 0.00 0.00 0.00 53 1010.4
20260505032924 18 260 14.5 33.8 0.00 0.00 0.00 53 1010.4
20260505032843 18 268 19.3 33.8 0.00 0.00 0.00 53 1010.6
20260505032726 18 272 16.1 29.0 0.00 0.00 0.00 53 1010.6
20260505032624 18 282 16.1 29.0 0.00 0.00 0.00 53 1010.6
20260505032522 18 299 11.3 29.0 0.00 0.00 0.00 53 1010.6
20260505032443 18 305 9.7 29.0 0.00 0.00 0.00 53 1010.6
20260505032342 18 195 11.3 29.0 0.00 0.00 0.00 53 1010.6
20260505032240 18 264 12.9 29.0 0.00 0.00 0.00 53 1010.6
20260505032139 18 292 17.7 29.0 0.00 0.00 0.00 53 1010.6
20260505032041 18 301 19.3 29.0 0.00 0.00 0.00 53 1010.6
20260505031959 18 329 17.7 29.0 0.00 0.00 0.00 53 1010.6
20260505031856 18 243 16.1 29.0 0.00 0.00 0.00 53 1010.6
20260505031732 18 322 20.9 29.0 0.00 0.00 0.00 53 1010.6
20260505031702 18 302 20.9 29.0 0.00 0.00 0.00 52 1010.6
20260505031539 18 289 17.7 29.0 0.00 0.00 0.00 52 1010.6
20260505031437 18 256 17.7 29.0 0.00 0.00 0.00 52 1010.6
20260505031335 18 239 14.5 29.0 0.00 0.00 0.00 52 1009.8
20260505031238 18 264 16.1 29.0 0.00 0.00 0.00 52 1009.8
20260505031136 18 288 12.9 29.0 0.00 0.00 0.00 51 1009.8
20260505031035 18 315 14.5 29.0 0.00 0.00 0.00 52 1009.8
20260505030954 18 284 16.1 29.0 0.00 0.00 0.00 52 1009.8
20260505030831 18 330 14.5 29.0 0.00 0.00 0.00 52 1009.8
20260505030729 18 287 14.5 27.4 0.00 0.00 0.00 51 1009.8
20260505030628 18 280 16.1 25.7 0.00 0.00 0.00 51 1009.8
20260505030530 18 326 12.9 22.5 0.00 0.00 0.00 52 1009.8
20260505030428 18 295 14.5 27.4 0.00 0.00 0.00 51 1009.8
20260505030328 18 256 14.5 30.6 0.00 0.00 0.00 51 1009.8
20260505030226 18 244 14.5 30.6 0.00 0.00 0.00 51 1009.8
20260505030157 18 285 16.1 30.6 0.00 0.00 0.00 51 1009.8
20260505030037 18 263 16.1 30.6 0.00 0.00 0.00 51 1009.8
20260505025935 18 267 11.3 30.6 0.00 0.00 0.00 51 1009.8
20260505025834 18 316 12.9 30.6 0.00 0.00 0.00 51 1009.9
20260505025735 18 224 12.9 30.6 0.00 0.00 0.00 51 1009.9
20260505025634 18 295 14.5 30.6 0.00 0.00 0.00 51 1009.9
20260505025532 18 298 20.9 30.6 0.00 0.00 0.00 51 1009.9
20260505025430 18 326 16.1 29.0 0.00 0.00 0.00 51 1009.9
20260505025329 18 288 11.3 29.0 0.00 0.00 0.00 51 1009.9
20260505025227 18 330 16.1 29.0 0.00 0.00 0.00 51 1009.9
20260505025146 18 309 12.9 29.0 0.00 0.00 0.00 51 1009.9
20260505025027 18 329 14.5 29.0 0.00 0.00 0.00 51 1009.9
20260505024929 18 311 16.1 27.4 0.00 0.00 0.00 51 1009.9
20260505024828 18 336 11.3 27.4 0.00 0.00 0.00 51 1009.9
20260505024727 18 251 14.5 27.4 0.00 0.00 0.00 51 1009.9
20260505024656 18 301 16.1 27.4 0.00 0.00 0.00 51 1009.9
20260505024534 18 268 14.5 27.4 0.00 0.00 0.00 51 1009.9
20260505024432 18 308 16.1 32.2 0.00 0.00 0.00 51 1009.9
20260505024335 18 304 16.1 32.2 0.00 0.00 0.00 51 1009.8
20260505024234 18 325 14.5 32.2 0.00 0.00 0.00 51 1009.8
20260505024133 18 320 14.5 32.2 0.00 0.00 0.00 51 1009.8
20260505024031 18 312 12.9 32.2 0.00 0.00 0.00 51 1009.8
20260505023929 18 281 14.5 32.2 0.00 0.00 0.00 51 1009.8
20260505023829 18 326 17.7 32.2 0.00 0.00 0.00 51 1009.8
20260505023732 18 313 12.9 32.2 0.00 0.00 0.00 51 1009.8
20260505023629 18 294 19.3 32.2 0.00 0.00 0.00 51 1009.8
20260505023529 18 229 17.7 29.0 0.00 0.00 0.00 51 1009.8
20260505023426 18 264 9.7 29.0 0.00 0.00 0.00 50 1009.8
20260505023325 18 294 11.3 29.0 0.00 0.00 0.00 50 1009.8
20260505023224 18 299 17.7 29.0 0.00 0.00 0.00 51 1009.8
20260505023153 18 298 14.5 29.0 0.00 0.00 0.00 51 1009.8
20260505023034 18 328 14.5 29.0 0.00 0.00 0.00 51 1009.8
20260505022932 18 294 17.7 30.6 0.00 0.00 0.00 50 1009.8
20260505022831 18 289 16.1 30.6 0.00 0.00 0.00 50 1009.7
20260505022730 18 305 11.3 30.6 0.00 0.00 0.00 51 1009.7
20260505022627 18 311 16.1 30.6 0.00 0.00 0.00 51 1009.7
20260505022527 18 313 12.9 30.6 0.00 0.00 0.00 50 1009.7
20260505022429 18 256 19.3 30.6 0.00 0.00 0.00 50 1009.7
20260505022332 18 282 9.7 30.6 0.00 0.00 0.00 51 1009.7
20260505022230 18 304 16.1 30.6 0.00 0.00 0.00 51 1009.7
20260505022129 18 280 14.5 30.6 0.00 0.00 0.00 50 1009.7
20260505022027 18 268 14.5 27.4 0.00 0.00 0.00 51 1009.7
20260505021944 18 301 12.9 27.4 0.00 0.00 0.00 51 1009.7
20260505021842 18 322 14.5 27.4 0.00 0.00 0.00 51 1009.7
20260505021725 18 306 14.5 27.4 0.00 0.00 0.00 51 1009.7
20260505021655 18 305 11.3 27.4 0.00 0.00 0.00 51 1009.7
20260505021532 18 311 12.9 27.4 0.00 0.00 0.00 51 1009.7
20260505021430 18 325 14.5 27.4 0.00 0.00 0.00 51 1009.7
20260505021349 18 260 17.7 27.4 0.00 0.00 0.00 51 1009.7
20260505021307 18 282 19.3 27.4 0.00 0.00 0.00 51 1009.7
20260505021205 18 292 20.9 27.4 0.00 0.00 0.00 50 1009.7
20260505021103 18 289 17.7 27.4 0.00 0.00 0.00 50 1009.7
20260505020942 18 234 19.3 27.4 0.00 0.00 0.00 50 1009.7
20260505020843 18 291 19.3 27.4 0.00 0.00 0.00 51 1009.7
20260505020742 18 295 19.3 27.4 0.00 0.00 0.00 50 1009.7
20260505020642 18 313 12.9 27.4 0.00 0.00 0.00 50 1009.7
20260505020539 18 248 11.3 27.4 0.00 0.00 0.00 50 1009.7
20260505020439 18 230 16.1 27.4 0.00 0.00 0.00 50 1009.7
20260505020337 18 318 14.5 27.4 0.00 0.00 0.00 50 1009.7
20260505020236 18 291 12.9 27.4 0.00 0.00 0.00 50 1009.7
20260505020210 18 312 17.7 27.4 0.00 0.00 0.00 50 1009.7
20260505020027 18 229 14.5 27.4 0.00 0.00 0.00 50 1009.7
20260505015947 19 322 16.1 27.4 0.00 0.00 0.00 51 1009.7
20260505015825 19 281 14.5 29.0 0.00 0.00 0.00 50 1009.6
20260505015745 19 323 14.5 29.0 0.00 0.00 0.00 50 1009.6
20260505015705 19 240 12.9 29.0 0.00 0.00 0.00 50 1009.6
20260505015542 19 318 12.9 29.0 0.00 0.00 0.00 50 1009.6
20260505015440 19 281 12.9 29.0 0.00 0.00 0.00 50 1009.6
20260505015342 19 304 9.7 29.0 0.00 0.00 0.00 50 1009.6
20260505015241 19 285 12.9 29.0 0.00 0.00 0.00 50 1009.6
20260505015140 19 282 17.7 29.0 0.00 0.00 0.00 50 1009.6
20260505015058 19 257 19.3 29.0 0.00 0.00 0.00 50 1009.6
20260505014935 19 277 17.7 27.4 0.00 0.00 0.00 50 1009.6
20260505014853 19 264 17.7 27.4 0.00 0.00 0.00 50 1009.6
20260505014751 19 326 16.1 27.4 0.00 0.00 0.00 50 1009.6
20260505014720 19 329 17.7 27.4 0.00 0.00 0.00 50 1009.6
20260505014538 19 320 17.7 27.4 0.00 0.00 0.00 50 1009.6
20260505014442 19 291 16.1 24.1 0.00 0.00 0.00 50 1009.6
20260505014340 19 329 17.7 24.1 0.00 0.00 0.00 50 1009.6
20260505014257 19 265 16.1 24.1 0.00 0.00 0.00 50 1009.6
20260505014135 19 298 14.5 24.1 0.00 0.00 0.00 50 1009.6
20260505014033 19 284 14.5 24.1 0.00 0.00 0.00 50 1009.6
20260505013932 19 260 14.5 22.5 0.00 0.00 0.00 49 1009.6
20260505013831 19 284 16.1 22.5 0.00 0.00 0.00 49 1009.6
20260505013753 19 330 12.9 27.4 0.00 0.00 0.00 50 1009.6
20260505013629 19 294 11.3 27.4 0.00 0.00 0.00 49 1009.6
20260505013528 19 319 16.1 27.4 0.00 0.00 0.00 49 1009.6
20260505013426 19 304 14.5 27.4 0.00 0.00 0.00 49 1009.6
20260505013325 19 323 12.9 27.4 0.00 0.00 0.00 48 1009.6
20260505013235 19 299 12.9 27.4 0.00 0.00 0.00 48 1009.6
20260505013146 19 330 12.9 27.4 0.00 0.00 0.00 48 1009.6
20260505013027 19 291 17.7 27.4 0.00 0.00 0.00 48 1009.6
20260505012944 19 326 16.1 27.4 0.00 0.00 0.00 48 1009.6
20260505012903 19 284 16.1 27.4 0.00 0.00 0.00 48 1009.6
20260505012801 19 287 14.5 22.5 0.00 0.00 0.00 48 1009.6
20260505012636 19 302 12.9 22.5 0.00 0.00 0.00 48 1009.6
20260505012554 19 330 12.9 22.5 0.00 0.00 0.00 48 1009.6
20260505012452 19 323 14.5 22.5 0.00 0.00 0.00 48 1009.6
20260505012330 19 329 17.7 22.5 0.00 0.00 0.00 48 1009.6
20260505012252 19 280 14.5 22.5 0.00 0.00 0.00 48 1009.6
20260505012129 19 315 14.5 22.5 0.00 0.00 0.00 47 1009.6
20260505012032 19 332 14.5 22.5 0.00 0.00 0.00 48 1009.6
20260505011952 19 333 12.9 27.4 0.00 0.00 0.00 48 1009.6
20260505011830 19 320 8.0 27.4 0.00 0.00 0.00 48 1009.6
20260505011741 19 313 11.3 27.4 0.00 0.00 0.00 48 1009.6
20260505011651 19 294 12.9 27.4 0.00 0.00 0.00 48 1009.6
20260505011529 19 291 8.0 27.4 0.00 0.00 0.00 47 1009.6
20260505011447 19 268 11.3 27.4 0.00 0.00 0.00 47 1009.6
20260505011325 19 195 14.5 27.4 0.00 0.00 0.00 47 1009.6
20260505011227 20 240 12.9 27.4 0.00 0.00 0.00 48 1009.6
20260505011146 20 335 16.1 27.4 0.00 0.00 0.00 47 1009.6
20260505011042 20 332 17.7 27.4 0.00 0.00 0.00 47 1009.6
20260505010940 20 325 14.5 27.4 0.00 0.00 0.00 47 1009.6
20260505010839 20 329 17.7 27.4 0.00 0.00 0.00 48 1009.6
20260505010737 20 322 16.1 27.4 0.00 0.00 0.00 47 1009.6
20260505010637 20 304 9.7 22.5 0.00 0.00 0.00 47 1009.6
20260505010535 20 337 14.5 22.5 0.00 0.00 0.00 47 1009.6
20260505010436 20 328 9.7 22.5 0.00 0.00 0.00 47 1009.6
20260505010335 20 301 11.3 22.5 0.00 0.00 0.00 47 1009.6
20260505010305 20 312 9.7 22.5 0.00 0.00 0.00 47 1009.6
20260505010154 20 329 9.7 22.5 0.00 0.00 0.00 47 1009.6
20260505010050 20 302 9.7 22.5 0.00 0.00 0.00 47 1009.6
20260505005948 20 309 14.5 22.5 0.00 0.00 0.00 47 1009.6
20260505005825 20 301 9.7 20.9 0.00 0.00 0.00 46 1009.4
20260505005742 20 322 12.9 25.7 0.00 0.00 0.00 46 1009.4
20260505005700 20 309 11.3 25.7 0.00 0.00 0.00 46 1009.4
20260505005539 20 281 8.0 25.7 0.00 0.00 0.00 46 1009.4
20260505005441 20 332 11.3 25.7 0.00 0.00 0.00 47 1009.4
20260505005339 20 305 11.3 25.7 0.00 0.00 0.00 47 1009.4
20260505005237 20 328 12.9 25.7 0.00 0.00 0.00 46 1009.4
20260505005134 20 326 14.5 25.7 0.00 0.00 0.00 47 1009.4
20260505005034 20 313 11.3 27.4 0.00 0.00 0.00 47 1009.4
20260505004933 20 330 17.7 27.4 0.00 0.00 0.00 47 1009.4
20260505004851 20 325 19.3 27.4 0.00 0.00 0.00 47 1009.4
20260505004744 20 325 11.3 27.4 0.00 0.00 0.00 46 1009.4
20260505004655 20 316 14.5 27.4 0.00 0.00 0.00 46 1009.4
20260505004532 20 305 12.9 27.4 0.00 0.00 0.00 46 1009.4
20260505004430 20 329 12.9 27.4 0.00 0.00 0.00 46 1009.4
20260505004329 20 267 16.1 30.6 0.00 0.00 0.00 46 1009.4
20260505004228 20 296 12.9 30.6 0.00 0.00 0.00 46 1009.4
20260505004126 20 319 16.1 30.6 0.00 0.00 0.00 47 1009.4
20260505004027 20 311 11.3 30.6 0.00 0.00 0.00 47 1009.4
20260505003946 20 304 12.9 30.6 0.00 0.00 0.00 46 1009.4
20260505003904 20 330 14.5 30.6 0.00 0.00 0.00 46 1009.4
20260505003742 20 281 11.3 30.6 0.00 0.00 0.00 45 1009.4
20260505003641 20 316 12.9 30.6 0.00 0.00 0.00 45 1009.4
20260505003538 20 296 19.3 30.6 0.00 0.00 0.00 46 1009.4
20260505003437 20 326 12.9 20.9 0.00 0.00 0.00 46 1009.4
20260505003335 20 230 9.7 24.1 0.00 0.00 0.00 46 1009.4
20260505003235 20 320 11.3 24.1 0.00 0.00 0.00 46 1009.4
20260505003205 20 272 9.7 24.1 0.00 0.00 0.00 46 1009.4
20260505003041 20 271 14.5 24.1 0.00 0.00 0.00 46 1009.4
20260505002939 20 287 12.9 24.1 0.00 0.00 0.00 45 1009.4
20260505002838 20 294 9.7 24.1 0.00 0.00 0.00 45 1009.2
20260505002736 20 329 11.3 24.1 0.00 0.00 0.00 45 1009.2
20260505002635 20 328 11.3 24.1 0.00 0.00 0.00 45 1009.2
20260505002554 20 284 16.1 24.1 0.00 0.00 0.00 45 1009.2
20260505002434 20 330 12.9 22.5 0.00 0.00 0.00 46 1009.2
20260505002332 20 292 9.7 22.5 0.00 0.00 0.00 45 1009.2
20260505002231 20 285 9.7 22.5 0.00 0.00 0.00 46 1009.2
20260505002131 21 328 14.5 25.7 0.00 0.00 0.00 45 1009.2
20260505002029 21 308 14.5 25.7 0.00 0.00 0.00 44 1009.2
20260505001928 21 309 8.0 32.2 0.00 0.00 0.00 44 1009.2
20260505001830 21 282 8.0 32.2 0.00 0.00 0.00 44 1009.2
20260505001803 21 313 14.5 32.2 0.00 0.00 0.00 44 1009.2
20260505001651 21 325 12.9 32.2 0.00 0.00 0.00 44 1009.2
20260505001529 21 319 12.9 32.2 0.00 0.00 0.00 44 1009.2
20260505001426 21 288 11.3 32.2 0.00 0.00 0.00 45 1009.2
20260505001325 21 281 12.9 32.2 0.00 0.00 0.00 44 1009.2
20260505001224 21 316 12.9 32.2 0.00 0.00 0.00 45 1009.2
20260505001141 21 268 17.7 32.2 0.00 0.00 0.00 45 1009.2
20260505001024 21 275 16.1 29.0 0.00 0.00 0.00 45 1009.2
20260505000943 21 296 11.3 29.0 0.00 0.00 0.00 44 1009.2
20260505000842 21 257 8.0 29.0 0.00 0.00 0.00 44 1009.2
20260505000801 21 258 16.1 29.0 0.00 0.00 0.00 44 1009.2
20260505000639 21 278 17.7 29.0 0.00 0.00 0.00 45 1009.2
20260505000537 21 284 14.5 22.5 0.00 0.00 0.00 45 1009.2
20260505000435 21 264 9.7 22.5 0.00 0.00 0.00 45 1009.2
20260505000337 21 281 8.0 22.5 0.00 0.00 0.00 45 1009.2
20260505000235 21 251 6.4 22.5 0.00 0.00 0.00 45 1009.2
20260505000145 21 323 9.7 22.5 0.00 0.00 0.00 45 1009.2
20260505000041 21 291 9.7 22.5 0.00 0.00 0.00 44 1009.2
20260504235940 21 330 11.3 22.5 0.00 0.00 0.00 44 1009.2
20260504235858 21 312 17.7 22.5 0.00 0.00 0.00 45 1009.2
20260504235757 21 305 11.3 22.5 0.00 0.00 0.00 44 1009.2
20260504235635 21 272 14.5 22.5 0.00 0.00 0.00 44 1009.2
20260504235537 21 305 12.9 22.5 0.00 0.00 0.00 44 1009.2
20260504235439 21 264 14.5 22.5 0.00 0.00 0.00 44 1009.2
20260504235339 21 294 16.1 22.5 0.00 0.00 0.00 44 1009.2
20260504235258 21 305 12.9 29.0 0.00 0.00 0.00 45 1009.2
20260504235135 21 316 11.3 29.0 0.00 0.00 0.00 45 1009.2
20260504235033 21 328 9.7 29.0 0.00 0.00 0.00 44 1009.2
20260504234931 21 299 8.0 29.0 0.00 0.00 0.00 44 1009.2
20260504234831 21 328 6.4 30.6 0.00 0.00 0.00 44 1009.2
20260504234733 21 274 8.0 30.6 0.00 0.00 0.00 43 1009.2
20260504234701 21 318 16.1 33.8 0.00 0.00 0.00 44 1009.2
20260504234539 21 234 16.1 33.8 0.00 0.00 0.00 44 1009.2
20260504234437 21 257 16.1 33.8 0.00 0.00 0.00 43 1009.2
20260504234355 21 267 20.9 33.8 0.00 0.00 0.00 44 1009.2
20260504234233 21 309 11.3 33.8 0.00 0.00 0.00 44 1009.2
20260504234131 21 278 9.7 33.8 0.00 0.00 0.00 44 1009.2
20260504234033 21 258 17.7 33.8 0.00 0.00 0.00 43 1009.2
20260504233931 21 304 17.7 33.8 0.00 0.00 0.00 44 1009.2
20260504233830 21 281 20.9 33.8 0.00 0.00 0.00 45 1009.2
20260504233751 21 281 9.7 32.2 0.00 0.00 0.00 45 1009.2
20260504233629 21 301 14.5 32.2 0.00 0.00 0.00 45 1009.2
20260504233548 21 292 8.0 29.0 0.00 0.00 0.00 45 1009.2
20260504233505 21 305 16.1 29.0 0.00 0.00 0.00 46 1009.2
20260504233403 21 250 16.1 29.0 0.00 0.00 0.00 46 1009.2
20260504233302 21 308 6.4 29.0 0.00 0.00 0.00 46 1009.2
20260504233210 21 308 17.7 29.0 0.00 0.00 0.00 46 1009.2
20260504233030 21 311 14.5 29.0 0.00 0.00 0.00 45 1009.2
20260504232948 21 265 9.7 29.0 0.00 0.00 0.00 45 1009.2
20260504232824 21 222 8.0 29.0 0.00 0.00 0.00 45 1009.3
20260504232742 21 312 12.9 29.0 0.00 0.00 0.00 45 1009.3
20260504232641 21 258 11.3 29.0 0.00 0.00 0.00 45 1009.3
20260504232540 21 274 9.7 29.0 0.00 0.00 0.00 45 1009.3
20260504232459 21 248 12.9 29.0 0.00 0.00 0.00 44 1009.3
20260504232355 21 302 11.3 29.0 0.00 0.00 0.00 45 1009.3
20260504232253 22 289 11.3 29.0 0.00 0.00 0.00 45 1009.3
20260504232135 22 309 16.1 29.0 0.00 0.00 0.00 46 1009.3
20260504232033 22 320 17.7 27.4 0.00 0.00 0.00 46 1009.3
20260504231932 22 288 8.0 27.4 0.00 0.00 0.00 45 1009.3
20260504231830 22 328 14.5 27.4 0.00 0.00 0.00 45 1009.3
20260504231800 22 302 8.0 38.6 0.00 0.00 0.00 45 1009.3
20260504231646 22 305 14.5 38.6 0.00 0.00 0.00 45 1009.3
20260504231543 22 333 17.7 38.6 0.00 0.00 0.00 45 1009.3
20260504231425 22 239 16.1 38.6 0.00 0.00 0.00 44 1009.3
20260504231343 22 248 14.5 38.6 0.00 0.00 0.00 45 1009.2
20260504231241 22 270 16.1 38.6 0.00 0.00 0.00 45 1009.2
20260504231140 22 301 16.1 38.6 0.00 0.00 0.00 44 1009.2
20260504231038 22 312 9.7 38.6 0.00 0.00 0.00 45 1009.2
20260504230936 22 277 22.5 38.6 0.00 0.00 0.00 44 1009.2
20260504230836 22 268 20.9 38.6 0.00 0.00 0.00 44 1009.2
20260504230755 22 298 14.5 29.0 0.00 0.00 0.00 44 1009.2
20260504230635 22 294 14.5 29.0 0.00 0.00 0.00 44 1009.2
20260504230535 22 263 20.9 29.0 0.00 0.00 0.00 45 1009.2
20260504230436 22 312 16.1 29.0 0.00 0.00 0.00 45 1009.2
20260504230333 22 267 16.1 29.0 0.00 0.00 0.00 45 1009.2
20260504230243 22 271 12.9 29.0 0.00 0.00 0.00 45 1009.2
20260504230154 22 256 9.7 29.0 0.00 0.00 0.00 45 1009.2
20260504230051 22 272 11.3 32.2 0.00 0.00 0.00 44 1009.2
20260504225932 22 309 19.3 32.2 0.00 0.00 0.00 45 1009.2
20260504225850 22 284 16.1 33.8 0.00 0.00 0.00 45 1009.4
20260504225747 22 275 17.7 33.8 0.00 0.00 0.00 45 1009.4
20260504225706 22 284 16.1 33.8 0.00 0.00 0.00 45 1009.4
20260504225603 22 316 9.7 33.8 0.00 0.00 0.00 44 1009.4
20260504225440 22 298 9.7 33.8 0.00 0.00 0.00 44 1009.4
20260504225339 22 326 14.5 33.8 0.00 0.00 0.00 44 1009.4
20260504225236 22 288 20.9 33.8 0.00 0.00 0.00 44 1009.4
20260504225136 22 298 22.5 33.8 0.00 0.00 0.00 44 1009.4
20260504225038 22 267 22.5 33.8 0.00 0.00 0.00 44 1009.4
20260504224937 22 301 14.5 27.4 0.00 0.00 0.00 44 1009.4
20260504224837 22 309 12.9 25.7 0.00 0.00 0.00 44 1009.4
20260504224735 22 299 8.0 25.7 0.00 0.00 0.00 44 1009.4
20260504224704 22 335 9.7 27.4 0.00 0.00 0.00 44 1009.4
20260504224541 22 330 14.5 27.4 0.00 0.00 0.00 44 1009.4
20260504224459 22 298 14.5 27.4 0.00 0.00 0.00 44 1009.4
20260504224336 22 315 11.3 27.4 0.00 0.00 0.00 43 1009.5
20260504224239 22 280 11.3 27.4 0.00 0.00 0.00 43 1009.5
20260504224137 22 291 11.3 27.4 0.00 0.00 0.00 43 1009.5
20260504224056 22 257 16.1 27.4 0.00 0.00 0.00 43 1009.5
20260504223932 22 280 11.3 27.4 0.00 0.00 0.00 43 1009.5
20260504223851 22 224 16.1 29.0 0.00 0.00 0.00 43 1009.5
20260504223729 22 257 8.0 29.0 0.00 0.00 0.00 43 1009.5
20260504223627 22 282 14.5 29.0 0.00 0.00 0.00 43 1009.5
20260504223530 22 304 16.1 29.0 0.00 0.00 0.00 43 1009.5
20260504223429 22 268 8.0 29.0 0.00 0.00 0.00 43 1009.5
20260504223328 22 298 4.8 29.0 0.00 0.00 0.00 43 1009.5
20260504223227 22 305 11.3 29.0 0.00 0.00 0.00 43 1009.5
20260504223157 22 291 12.9 29.0 0.00 0.00 0.00 43 1009.5
20260504223033 22 304 17.7 29.0 0.00 0.00 0.00 44 1009.5
20260504222931 22 304 12.9 29.0 0.00 0.00 0.00 44 1009.5
20260504222850 22 292 19.3 29.0 0.00 0.00 0.00 45 1009.4
20260504222732 22 280 11.3 27.4 0.00 0.00 0.00 45 1009.4
20260504222631 22 298 9.7 40.2 0.00 0.00 0.00 45 1009.4
20260504222530 22 285 12.9 40.2 0.00 0.00 0.00 45 1009.4
20260504222430 22 248 6.4 40.2 0.00 0.00 0.00 45 1009.4
20260504222328 22 292 16.1 40.2 0.00 0.00 0.00 44 1009.4
20260504222226 22 319 12.9 40.2 0.00 0.00 0.00 44 1009.4
20260504222129 22 270 17.7 40.2 0.00 0.00 0.00 44 1009.4
20260504222030 22 309 17.7 40.2 0.00 0.00 0.00 44 1009.4
20260504221929 22 268 14.5 40.2 0.00 0.00 0.00 44 1009.4
20260504221847 22 280 25.7 40.2 0.00 0.00 0.00 44 1009.4
20260504221745 22 264 16.1 33.8 0.00 0.00 0.00 44 1009.4
20260504221715 22 282 12.9 33.8 0.00 0.00 0.00 44 1009.4
20260504221531 22 248 14.5 33.8 0.00 0.00 0.00 45 1009.4
20260504221430 22 271 16.1 33.8 0.00 0.00 0.00 45 1009.4
20260504221332 22 291 20.9 33.8 0.00 0.00 0.00 45 1009.5
20260504221250 22 302 19.3 33.8 0.00 0.00 0.00 45 1009.5
20260504221127 22 308 16.1 33.8 0.00 0.00 0.00 45 1009.5
20260504221025 22 291 20.9 33.8 0.00 0.00 0.00 44 1009.5
20260504220924 22 292 9.7 33.8 0.00 0.00 0.00 44 1009.5
20260504220824 22 302 16.1 33.8 0.00 0.00 0.00 44 1009.5
20260504220743 22 320 16.1 33.8 0.00 0.00 0.00 44 1009.5
20260504220627 22 272 19.3 33.8 0.00 0.00 0.00 44 1009.5
20260504220526 22 272 16.1 33.8 0.00 0.00 0.00 44 1009.5
20260504220424 22 267 9.7 29.0 0.00 0.00 0.00 44 1009.5
20260504220323 22 330 14.5 29.0 0.00 0.00 0.00 44 1009.5
20260504220237 22 329 11.3 29.0 0.00 0.00 0.00 44 1009.5
20260504220148 22 304 12.9 29.0 0.00 0.00 0.00 43 1009.5
20260504220043 22 318 9.7 29.0 0.00 0.00 0.00 43 1009.5
20260504215926 22 301 11.3 29.0 0.00 0.00 0.00 42 1009.5
20260504215824 22 323 12.9 29.0 0.00 0.00 0.00 42 1009.5
20260504215743 22 308 17.7 29.0 0.00 0.00 0.00 42 1009.5
20260504215643 22 287 16.1 29.0 0.00 0.00 0.00 42 1009.5
20260504215541 22 313 11.3 20.9 0.00 0.00 0.00 42 1009.5
20260504215440 22 326 8.0 20.9 0.00 0.00 0.00 41 1009.5
20260504215359 22 306 11.3 22.5 0.00 0.00 0.00 40 1009.5
20260504215236 22 311 11.3 22.5 0.00 0.00 0.00 40 1009.5
20260504215159 22 251 11.3 22.5 0.00 0.00 0.00 39 1009.5
20260504215056 22 278 14.5 22.5 0.00 0.00 0.00 38 1009.5
20260504214933 22 325 12.9 27.4 0.00 0.00 0.00 39 1009.5
20260504214832 22 287 3.2 27.4 0.00 0.00 0.00 39 1009.5
20260504214800 22 305 9.7 30.6 0.00 0.00 0.00 39 1009.5
20260504214647 22 329 8.0 30.6 0.00 0.00 0.00 39 1009.5
20260504214524 22 318 12.9 30.6 0.00 0.00 0.00 38 1009.5
20260504214442 22 274 11.3 30.6 0.00 0.00 0.00 38 1009.5
20260504214325 22 304 12.9 30.6 0.00 0.00 0.00 38 1009.4
20260504214244 22 284 14.5 30.6 0.00 0.00 0.00 39 1009.4
20260504214142 22 322 14.5 30.6 0.00 0.00 0.00 40 1009.4
20260504214039 22 326 12.9 30.6 0.00 0.00 0.00 40 1009.4
20260504213938 22 308 16.1 30.6 0.00 0.00 0.00 41 1009.4
20260504213837 22 302 12.9 29.0 0.00 0.00 0.00 41 1009.4
20260504213735 22 312 14.5 29.0 0.00 0.00 0.00 41 1009.4
20260504213639 22 305 16.1 30.6 0.00 0.00 0.00 40 1009.4
20260504213537 22 329 14.5 30.6 0.00 0.00 0.00 41 1009.4
20260504213437 22 322 11.3 30.6 0.00 0.00 0.00 41 1009.4
20260504213336 22 316 16.1 30.6 0.00 0.00 0.00 41 1009.4
20260504213234 22 270 12.9 30.6 0.00 0.00 0.00 41 1009.4
20260504213205 22 322 12.9 30.6 0.00 0.00 0.00 41 1009.4
20260504213041 22 325 11.3 30.6 0.00 0.00 0.00 42 1009.4
20260504212925 22 217 16.1 32.2 0.00 0.00 0.00 41 1009.4
20260504212842 22 325 11.3 32.2 0.00 0.00 0.00 42 1009.6
20260504212741 22 302 8.0 38.6 0.00 0.00 0.00 41 1009.6
20260504212639 22 285 12.9 38.6 0.00 0.00 0.00 41 1009.6
20260504212538 22 328 9.7 38.6 0.00 0.00 0.00 41 1009.6
20260504212435 22 299 11.3 38.6 0.00 0.00 0.00 41 1009.6
20260504212333 22 287 14.5 38.6 0.00 0.00 0.00 41 1009.6
20260504212256 22 265 9.7 38.6 0.00 0.00 0.00 41 1009.6
20260504212132 22 261 9.7 38.6 0.00 0.00 0.00 40 1009.6
20260504212030 22 305 20.9 38.6 0.00 0.00 0.00 39 1009.6
20260504211930 22 246 24.1 38.6 0.00 0.00 0.00 40 1009.6
20260504211828 22 292 12.9 33.8 0.00 0.00 0.00 39 1009.6
20260504211726 22 296 14.5 33.8 0.00 0.00 0.00 39 1009.6
20260504211657 22 309 22.5 33.8 0.00 0.00 0.00 39 1009.6
20260504211538 22 318 17.7 33.8 0.00 0.00 0.00 40 1009.6
20260504211437 22 325 16.1 27.4 0.00 0.00 0.00 40 1009.6
20260504211336 22 316 11.3 27.4 0.00 0.00 0.00 40 1009.7
20260504211235 23 302 14.5 27.4 0.00 0.00 0.00 41 1009.7
20260504211132 22 284 9.7 27.4 0.00 0.00 0.00 41 1009.7
20260504211034 22 240 8.0 25.7 0.00 0.00 0.00 41 1009.7
20260504210932 23 236 11.3 25.7 0.00 0.00 0.00 41 1009.7
20260504210835 23 223 14.5 25.7 0.00 0.00 0.00 41 1009.7
20260504210753 23 316 16.1 32.2 0.00 0.00 0.00 41 1009.7
20260504210630 23 278 9.7 32.2 0.00 0.00 0.00 43 1009.7
20260504210528 23 315 12.9 32.2 0.00 0.00 0.00 44 1009.7
20260504210447 23 284 16.1 32.2 0.00 0.00 0.00 43 1009.7
20260504210324 23 323 16.1 32.2 0.00 0.00 0.00 42 1009.7
20260504210242 23 285 12.9 32.2 0.00 0.00 0.00 43 1009.7
20260504210212 23 240 6.4 32.2 0.00 0.00 0.00 43 1009.7
20260504210027 23 210 8.0 32.2 0.00 0.00 0.00 44 1009.7
20260504205950 23 254 16.1 32.2 0.00 0.00 0.00 44 1009.7
20260504205828 23 322 9.7 22.5 0.00 0.00 0.00 44 1009.8
20260504205726 23 329 8.0 22.5 0.00 0.00 0.00 44 1009.8
20260504205624 23 308 4.8 32.2 0.00 0.00 0.00 44 1009.8
20260504205541 23 305 9.7 32.2 0.00 0.00 0.00 44 1009.8
20260504205440 23 291 12.9 32.2 0.00 0.00 0.00 45 1009.8
20260504205338 23 322 14.5 32.2 0.00 0.00 0.00 45 1009.8
20260504205237 23 319 11.3 32.2 0.00 0.00 0.00 44 1009.8
20260504205139 23 304 4.8 32.2 0.00 0.00 0.00 44 1009.8
20260504205036 23 284 8.0 32.2 0.00 0.00 0.00 45 1009.8
20260504204935 23 274 12.9 32.2 0.00 0.00 0.00 45 1009.8
20260504204833 23 278 24.1 32.2 0.00 0.00 0.00 44 1009.8
20260504204743 23 319 4.8 20.9 0.00 0.00 0.00 45 1009.8
20260504204651 23 254 6.4 30.6 0.00 0.00 0.00 45 1009.8
20260504204528 23 328 9.7 30.6 0.00 0.00 0.00 44 1009.8
20260504204431 23 309 1.6 30.6 0.00 0.00 0.00 44 1009.8
20260504204350 23 261 9.7 30.6 0.00 0.00 0.00 44 1009.9
20260504204228 23 301 14.5 30.6 0.00 0.00 0.00 44 1009.9
20260504204126 23 322 12.9 30.6 0.00 0.00 0.00 44 1009.9
20260504204024 23 301 9.7 30.6 0.00 0.00 0.00 45 1009.9
20260504203944 23 329 8.0 30.6 0.00 0.00 0.00 44 1009.9
20260504203902 23 294 14.5 30.6 0.00 0.00 0.00 45 1009.9
20260504203739 23 288 11.3 22.5 0.00 0.00 0.00 45 1009.9
20260504203642 23 320 9.7 20.9 0.00 0.00 0.00 44 1009.9
20260504203539 23 302 9.7 20.9 0.00 0.00 0.00 44 1009.9
20260504203437 23 328 4.8 20.9 0.00 0.00 0.00 43 1009.9
20260504203336 23 268 8.0 20.9 0.00 0.00 0.00 44 1009.9
20260504203256 23 296 9.7 25.7 0.00 0.00 0.00 44 1009.9
20260504203226 23 323 11.3 25.7 0.00 0.00 0.00 44 1009.9
20260504203103 23 320 12.9 25.7 0.00 0.00 0.00 44 1009.9
20260504202924 23 326 8.0 29.0 0.00 0.00 0.00 44 1009.9
20260504202842 23 335 11.3 29.0 0.00 0.00 0.00 43 1010.1
20260504202741 23 271 11.3 29.0 0.00 0.00 0.00 44 1010.1
20260504202639 23 272 4.8 29.0 0.00 0.00 0.00 46 1010.1
20260504202538 23 230 9.7 29.0 0.00 0.00 0.00 45 1010.1
20260504202456 23 288 12.9 29.0 0.00 0.00 0.00 44 1010.1
20260504202334 23 291 8.0 29.0 0.00 0.00 0.00 44 1010.1
20260504202232 23 257 14.5 29.0 0.00 0.00 0.00 46 1010.1
20260504202155 23 328 17.7 29.0 0.00 0.00 0.00 46 1010.1
20260504202032 23 305 12.9 27.4 0.00 0.00 0.00 46 1010.1
20260504201932 23 315 12.9 24.1 0.00 0.00 0.00 47 1010.1
20260504201831 23 301 11.3 25.7 0.00 0.00 0.00 47 1010.1
20260504201656 23 329 3.2 25.7 0.00 0.00 0.00 46 1010.1
20260504201533 23 309 3.2 25.7 0.00 0.00 0.00 46 1010.1
20260504201431 23 229 6.4 25.7 0.00 0.00 0.00 46 1010.1
20260504201335 23 325 6.4 25.7 0.00 0.00 0.00 46 1010.0
20260504201234 23 330 6.4 25.7 0.00 0.00 0.00 46 1010.0
20260504201132 23 330 6.4 25.7 0.00 0.00 0.00 45 1010.0
20260504201031 23 329 11.3 25.7 0.00 0.00 0.00 46 1010.0
20260504200930 23 292 16.1 25.7 0.00 0.00 0.00 45 1010.0
20260504200849 23 308 16.1 25.7 0.00 0.00 0.00 46 1010.0
20260504200725 23 329 14.5 29.0 0.00 0.00 0.00 45 1010.0
20260504200628 23 329 16.1 29.0 0.00 0.00 0.00 46 1010.0
20260504200526 23 322 19.3 29.0 0.00 0.00 0.00 46 1010.0
20260504200424 23 315 16.1 29.0 0.00 0.00 0.00 47 1010.0
20260504200326 23 315 12.9 29.0 0.00 0.00 0.00 47 1010.0
20260504200225 23 304 16.1 29.0 0.00 0.00 0.00 46 1010.0
20260504200156 23 312 12.9 29.0 0.00 0.00 0.00 46 1010.0
20260504200032 23 302 8.0 29.0 0.00 0.00 0.00 46 1010.0
20260504195930 23 315 12.9 29.0 0.00 0.00 0.00 47 1010.0
20260504195832 23 308 8.0 22.5 0.00 0.00 0.00 46 1010.2
20260504195751 23 256 6.4 19.3 0.00 0.00 0.00 46 1010.2
20260504195709 23 329 12.9 25.7 0.00 0.00 0.00 46 1010.2
20260504195605 23 316 11.3 25.7 0.00 0.00 0.00 46 1010.2
20260504195441 23 272 8.0 25.7 0.00 0.00 0.00 46 1010.2
20260504195340 23 328 6.4 25.7 0.00 0.00 0.00 46 1010.2
20260504195239 23 320 1.6 29.0 0.00 0.00 0.00 46 1010.2
20260504195136 23 291 3.2 29.0 0.00 0.00 0.00 47 1010.2
20260504195039 23 315 9.7 29.0 0.00 0.00 0.00 46 1010.2
20260504194937 23 299 12.9 29.0 0.00 0.00 0.00 45 1010.2
20260504194855 23 320 16.1 29.0 0.00 0.00 0.00 46 1010.2
20260504194753 23 323 14.5 29.0 0.00 0.00 0.00 46 1010.2
20260504194721 23 320 11.3 29.0 0.00 0.00 0.00 45 1010.2
20260504194538 23 287 9.7 29.0 0.00 0.00 0.00 44 1010.2
20260504194436 23 280 14.5 29.0 0.00 0.00 0.00 45 1010.2
20260504194334 23 328 9.7 20.9 0.00 0.00 0.00 45 1010.4
20260504194238 23 239 6.4 20.9 0.00 0.00 0.00 44 1010.4
20260504194156 23 325 12.9 27.4 0.00 0.00 0.00 44 1010.4
20260504194054 23 301 9.7 27.4 0.00 0.00 0.00 44 1010.4
20260504193930 23 328 11.3 27.4 0.00 0.00 0.00 44 1010.4
20260504193829 23 323 16.1 27.4 0.00 0.00 0.00 44 1010.4
20260504193751 23 292 17.7 27.4 0.00 0.00 0.00 45 1010.4
20260504193628 23 289 14.5 27.4 0.00 0.00 0.00 45 1010.4
20260504193527 23 304 1.6 27.4 0.00 0.00 0.00 44 1010.4
20260504193430 23 319 6.4 27.4 0.00 0.00 0.00 43 1010.4
20260504193349 23 320 16.1 27.4 0.00 0.00 0.00 45 1010.4
20260504193227 23 323 8.0 25.7 0.00 0.00 0.00 45 1010.4
20260504193157 23 302 6.4 25.7 0.00 0.00 0.00 45 1010.4
20260504193033 23 320 12.9 27.4 0.00 0.00 0.00 44 1010.4
20260504192931 23 296 9.7 27.4 0.00 0.00 0.00 44 1010.4
20260504192850 23 309 16.1 27.4 0.00 0.00 0.00 44 1010.7
20260504192727 23 325 11.3 27.4 0.00 0.00 0.00 44 1010.7
20260504192629 23 281 12.9 27.4 0.00 0.00 0.00 44 1010.7
20260504192527 23 315 6.4 27.4 0.00 0.00 0.00 44 1010.7
20260504192424 23 304 9.7 27.4 0.00 0.00 0.00 43 1010.7
20260504192344 23 311 16.1 27.4 0.00 0.00 0.00 44 1010.7
20260504192304 23 329 19.3 27.4 0.00 0.00 0.00 44 1010.7
20260504192141 23 333 16.1 27.4 0.00 0.00 0.00 44 1010.7
20260504192059 23 326 14.5 27.4 0.00 0.00 0.00 43 1010.7
20260504191936 23 322 9.7 27.4 0.00 0.00 0.00 44 1010.7
20260504191839 23 328 6.4 27.4 0.00 0.00 0.00 43 1010.7
20260504191739 23 326 9.7 29.0 0.00 0.00 0.00 43 1010.7
20260504191647 23 329 9.7 29.0 0.00 0.00 0.00 43 1010.7
20260504191545 23 329 6.4 29.0 0.00 0.00 0.00 44 1010.7
20260504191442 23 298 9.7 29.0 0.00 0.00 0.00 44 1010.7
20260504191340 23 330 19.3 29.0 0.00 0.00 0.00 44 1010.8
20260504191239 23 299 9.7 29.0 0.00 0.00 0.00 43 1010.8
20260504191136 23 299 4.8 29.0 0.00 0.00 0.00 44 1010.8
20260504191034 23 288 14.5 29.0 0.00 0.00 0.00 43 1010.8
20260504190936 23 305 17.7 29.0 0.00 0.00 0.00 43 1010.8
20260504190835 23 328 17.7 27.4 0.00 0.00 0.00 44 1010.8
20260504190733 23 333 16.1 27.4 0.00 0.00 0.00 44 1010.8
20260504190630 23 256 4.8 25.7 0.00 0.00 0.00 44 1010.8
20260504190529 23 326 14.5 25.7 0.00 0.00 0.00 44 1010.8
20260504190432 23 295 16.1 25.7 0.00 0.00 0.00 45 1010.8
20260504190350 23 316 6.4 20.9 0.00 0.00 0.00 46 1010.8
20260504190303 23 329 12.9 20.9 0.00 0.00 0.00 44 1010.8
20260504190152 23 319 9.7 20.9 0.00 0.00 0.00 45 1010.8
20260504190028 23 316 12.9 20.9 0.00 0.00 0.00 46 1010.8
20260504185927 24 271 1.6 17.7 0.00 0.00 0.00 47 1010.8
20260504185824 24 323 9.7 19.3 0.00 0.00 0.00 47 1011.1
20260504185741 24 315 9.7 19.3 0.00 0.00 0.00 47 1011.1
20260504185640 24 320 3.2 19.3 0.00 0.00 0.00 44 1011.1
20260504185538 24 328 3.2 19.3 0.00 0.00 0.00 44 1011.1
20260504185441 24 288 1.6 19.3 0.00 0.00 0.00 44 1011.1
20260504185340 24 323 4.8 19.3 0.00 0.00 0.00 45 1011.1
20260504185258 24 319 9.7 22.5 0.00 0.00 0.00 44 1011.1
20260504185155 24 299 4.8 22.5 0.00 0.00 0.00 45 1011.1
20260504185033 24 288 12.9 22.5 0.00 0.00 0.00 45 1011.1
20260504184951 24 326 11.3 22.5 0.00 0.00 0.00 46 1011.1
20260504184830 23 304 9.7 22.5 0.00 0.00 0.00 47 1011.1
20260504184748 23 239 6.4 22.5 0.00 0.00 0.00 45 1011.1
20260504184656 23 263 6.4 22.5 0.00 0.00 0.00 45 1011.1
20260504184538 23 272 4.8 22.5 0.00 0.00 0.00 44 1011.1
20260504184437 23 275 9.7 22.5 0.00 0.00 0.00 44 1011.1
20260504184336 23 263 12.9 20.9 0.00 0.00 0.00 44 1011.3
20260504184255 23 311 16.1 20.9 0.00 0.00 0.00 46 1011.3
20260504184132 23 322 12.9 27.4 0.00 0.00 0.00 47 1011.3
20260504184031 23 322 16.1 27.4 0.00 0.00 0.00 45 1011.3
20260504183930 23 305 9.7 27.4 0.00 0.00 0.00 46 1011.3
20260504183832 23 298 6.4 27.4 0.00 0.00 0.00 45 1011.3
20260504183729 23 311 9.7 27.4 0.00 0.00 0.00 45 1011.3
20260504183629 23 316 8.0 27.4 0.00 0.00 0.00 45 1011.3
20260504183547 23 305 6.4 27.4 0.00 0.00 0.00 45 1011.3
20260504183444 23 305 4.8 27.4 0.00 0.00 0.00 45 1011.3
20260504183342 23 295 14.5 27.4 0.00 0.00 0.00 46 1011.3
20260504183301 23 299 12.9 27.4 0.00 0.00 0.00 45 1011.3
20260504183211 23 244 11.3 24.1 0.00 0.00 0.00 46 1011.3
20260504183031 23 322 16.1 24.1 0.00 0.00 0.00 46 1011.3
20260504182950 23 329 9.7 20.9 0.00 0.00 0.00 45 1011.3
20260504182827 23 289 4.8 17.7 0.00 0.00 0.00 45 1011.4
20260504182729 23 312 8.0 17.7 0.00 0.00 0.00 46 1011.4
20260504182628 23 306 9.7 17.7 0.00 0.00 0.00 47 1011.4
20260504182546 23 302 11.3 17.7 0.00 0.00 0.00 45 1011.4
20260504182505 23 272 9.7 19.3 0.00 0.00 0.00 46 1011.4
20260504182402 23 319 11.3 22.5 0.00 0.00 0.00 45 1011.4
20260504182238 23 325 4.8 22.5 0.00 0.00 0.00 45 1011.4
20260504182141 23 308 4.8 22.5 0.00 0.00 0.00 45 1011.4
20260504182039 23 319 3.2 22.5 0.00 0.00 0.00 45 1011.4
20260504181937 23 308 6.4 22.5 0.00 0.00 0.00 44 1011.4
20260504181835 23 308 4.8 22.5 0.00 0.00 0.00 44 1011.4
20260504181753 23 292 3.2 22.5 0.00 0.00 0.00 44 1011.4
20260504181723 23 275 9.7 22.5 0.00 0.00 0.00 45 1011.4
20260504181601 23 270 14.5 22.5 0.00 0.00 0.00 47 1011.4
20260504181439 23 309 17.7 22.5 0.00 0.00 0.00 47 1011.4
20260504181341 23 313 9.7 22.5 0.00 0.00 0.00 47 1011.5
20260504181241 23 271 4.8 22.5 0.00 0.00 0.00 47 1011.5
20260504181158 23 312 1.6 22.5 0.00 0.00 0.00 46 1011.5
20260504181035 23 299 1.6 22.5 0.00 0.00 0.00 45 1011.5
20260504180934 23 285 8.0 22.5 0.00 0.00 0.00 45 1011.5
20260504180832 23 329 11.3 22.5 0.00 0.00 0.00 45 1011.5
20260504180730 23 287 12.9 22.5 0.00 0.00 0.00 45 1011.5
20260504180629 23 320 14.5 22.5 0.00 0.00 0.00 45 1011.5
20260504180531 23 264 11.3 22.5 0.00 0.00 0.00 45 1011.5
20260504180429 23 301 8.0 22.5 0.00 0.00 0.00 45 1011.5
20260504180328 23 329 6.4 22.5 0.00 0.00 0.00 45 1011.5
20260504180227 23 326 12.9 22.5 0.00 0.00 0.00 45 1011.5
20260504180158 23 326 14.5 22.5 0.00 0.00 0.00 45 1011.5
20260504180054 23 291 12.9 22.5 0.00 0.00 0.00 45 1011.5
20260504175932 23 328 8.0 22.5 0.00 0.00 0.00 45 1011.5
20260504175836 23 226 16.1 22.5 0.00 0.00 0.00 45 1011.7
20260504175755 23 328 8.0 22.5 0.00 0.00 0.00 45 1011.7
20260504175631 23 328 8.0 22.5 0.00 0.00 0.00 45 1011.7
20260504175529 23 280 4.8 22.5 0.00 0.00 0.00 45 1011.7
20260504175427 23 304 4.8 22.5 0.00 0.00 0.00 45 1011.7
20260504175326 23 320 9.7 22.5 0.00 0.00 0.00 45 1011.7
20260504175224 23 313 8.0 22.5 0.00 0.00 0.00 45 1011.7
20260504175122 23 298 12.9 22.5 0.00 0.00 0.00 44 1011.7
20260504175029 23 315 12.9 25.7 0.00 0.00 0.00 44 1011.7
20260504174928 23 329 11.3 27.4 0.00 0.00 0.00 44 1011.7
20260504174826 23 304 8.0 27.4 0.00 0.00 0.00 44 1011.7
20260504174736 23 318 3.2 27.4 0.00 0.00 0.00 45 1011.7
20260504174645 23 295 9.7 27.4 0.00 0.00 0.00 44 1011.7
20260504174524 23 304 8.0 27.4 0.00 0.00 0.00 46 1011.7
20260504174443 23 288 9.7 27.4 0.00 0.00 0.00 46 1011.7
20260504174324 23 298 12.9 27.4 0.00 0.00 0.00 46 1012.0
20260504174243 23 328 12.9 27.4 0.00 0.00 0.00 47 1012.0
20260504174142 23 316 16.1 27.4 0.00 0.00 0.00 46 1012.0
20260504174040 23 329 12.9 27.4 0.00 0.00 0.00 45 1012.0
20260504173938 23 312 9.7 27.4 0.00 0.00 0.00 44 1012.0
20260504173837 23 304 9.7 22.5 0.00 0.00 0.00 47 1012.0
20260504173756 23 333 6.4 22.5 0.00 0.00 0.00 47 1012.0
20260504173639 23 315 8.0 22.5 0.00 0.00 0.00 46 1012.0
20260504173541 23 298 8.0 22.5 0.00 0.00 0.00 46 1012.0
20260504173439 23 329 8.0 22.5 0.00 0.00 0.00 47 1012.0
20260504173335 23 325 11.3 27.4 0.00 0.00 0.00 48 1012.0
20260504173254 23 316 9.7 27.4 0.00 0.00 0.00 47 1012.0
20260504173203 23 322 11.3 27.4 0.00 0.00 0.00 47 1012.0
20260504173038 23 292 12.9 27.4 0.00 0.00 0.00 45 1012.0
20260504172958 23 329 4.8 27.4 0.00 0.00 0.00 47 1012.0
20260504172834 23 253 3.2 27.4 0.00 0.00 0.00 47 1012.2
20260504172758 23 329 6.4 27.4 0.00 0.00 0.00 46 1012.2
20260504172638 23 326 9.7 27.4 0.00 0.00 0.00 47 1012.2
20260504172538 23 285 17.7 27.4 0.00 0.00 0.00 47 1012.2
20260504172457 23 325 17.7 27.4 0.00 0.00 0.00 47 1012.2
20260504172335 23 319 8.0 20.9 0.00 0.00 0.00 47 1012.2
20260504172232 23 301 4.8 20.9 0.00 0.00 0.00 46 1012.2
20260504172131 23 329 3.2 22.5 0.00 0.00 0.00 45 1012.2
20260504172032 23 311 4.8 22.5 0.00 0.00 0.00 46 1012.2
20260504171930 23 319 8.0 22.5 0.00 0.00 0.00 46 1012.2
20260504171829 23 330 6.4 22.5 0.00 0.00 0.00 45 1012.2
20260504171739 23 319 12.9 22.5 0.00 0.00 0.00 45 1012.2
20260504171652 23 312 9.7 22.5 0.00 0.00 0.00 46 1012.2
20260504171529 23 328 8.0 22.5 0.00 0.00 0.00 46 1012.2
20260504171426 23 296 12.9 22.5 0.00 0.00 0.00 46 1012.2
20260504171329 23 328 12.9 22.5 0.00 0.00 0.00 46 1012.4
20260504171247 23 325 8.0 19.3 0.00 0.00 0.00 46 1012.4
20260504171125 23 291 6.4 19.3 0.00 0.00 0.00 46 1012.4
20260504171043 23 291 9.7 19.3 0.00 0.00 0.00 46 1012.4
20260504170941 23 280 8.0 22.5 0.00 0.00 0.00 47 1012.4
20260504170839 23 326 9.7 22.5 0.00 0.00 0.00 46 1012.4
20260504170737 23 318 6.4 22.5 0.00 0.00 0.00 47 1012.4
20260504170636 23 309 9.7 22.5 0.00 0.00 0.00 46 1012.4
20260504170554 23 318 6.4 22.5 0.00 0.00 0.00 45 1012.4
20260504170436 23 304 6.4 22.5 0.00 0.00 0.00 46 1012.4
20260504170333 23 319 9.7 22.5 0.00 0.00 0.00 47 1012.4
20260504170242 23 328 8.0 22.5 0.00 0.00 0.00 47 1012.4
20260504170153 23 323 11.3 22.5 0.00 0.00 0.00 46 1012.4
20260504160332 21 257 11.3 25.7 0.00 0.00 0.00 50 1013.2
20260504160240 21 302 12.9 25.7 0.00 0.00 0.00 50 1013.2
20260504160151 21 304 9.7 25.7 0.00 0.00 0.00 50 1013.2
20260504151141 18 313 16.1 32.2 0.00 0.00 0.00 55 1013.7
20260504151041 18 281 12.9 32.2 0.00 0.00 0.00 54 1013.7
20260504150959 18 295 9.7 32.2 0.00 0.00 0.00 55 1013.7
20260504150836 18 288 11.3 32.2 0.00 0.00 0.00 55 1013.7
20260504150737 18 271 14.5 32.2 0.00 0.00 0.00 54 1013.7
20260504150634 18 315 19.3 32.2 0.00 0.00 0.00 54 1013.7
20260504150532 18 298 14.5 32.2 0.00 0.00 0.00 55 1013.7
20260504150430 18 305 12.9 32.2 0.00 0.00 0.00 55 1013.7
20260504150327 18 285 16.1 32.2 0.00 0.00 0.00 55 1013.7
20260504150256 17 313 17.7 32.2 0.00 0.00 0.00 54 1013.7
20260504150146 17 294 20.9 32.2 0.00 0.00 0.00 55 1013.7
20260504141303 16 298 17.7 30.6 0.00 0.00 0.00 56 1013.4
20260504141141 16 254 14.5 29.0 0.00 0.00 0.00 56 1013.4
20260504141039 16 277 17.7 29.0 0.00 0.00 0.00 56 1013.4
20260504140941 16 304 17.7 27.4 0.00 0.00 0.00 56 1013.4
20260504140838 16 302 16.1 27.4 0.00 0.00 0.00 56 1013.4
20260504140736 16 274 14.5 27.4 0.00 0.00 0.00 56 1013.4
20260504140634 16 302 14.5 29.0 0.00 0.00 0.00 56 1013.4
20260504140533 16 323 11.3 33.8 0.00 0.00 0.00 56 1013.4
20260504140432 16 305 12.9 33.8 0.00 0.00 0.00 56 1013.4
20260504140332 16 289 14.5 33.8 0.00 0.00 0.00 56 1013.4
20260504140234 16 281 12.9 33.8 0.00 0.00 0.00 56 1013.4
20260504140202 16 282 12.9 33.8 0.00 0.00 0.00 56 1013.4
20260504130759 15 322 19.3 38.6 0.00 0.00 0.00 54 1013.1
20260504130637 15 294 20.9 38.6 0.00 0.00 0.00 54 1013.1
20260504130555 15 319 19.3 38.6 0.00 0.00 0.00 54 1013.1
20260504130433 15 267 16.1 38.6 0.00 0.00 0.00 54 1013.1
20260504130330 15 232 9.7 38.6 0.00 0.00 0.00 55 1013.1
20260504130259 15 270 24.1 40.2 0.00 0.00 0.00 55 1013.1
20260504130152 15 268 19.3 40.2 0.00 0.00 0.00 54 1013.1
20260504120241 13 309 22.5 38.6 0.00 0.00 0.00 56 1012.6
20260504120150 13 292 24.1 38.6 0.00 0.00 0.00 56 1012.6